FW3671 Weather Reports


Display with metric or nautical units.
time (UTC)temp
F
wind
direction
speed
MPH
gust
MPH
rain 1hr
in
rain 24hr
in
rain mn
in
humidity
%
barometer
mb
20260504191838 77 167 6.0 12.0 0.00 0.00 0.00 25 1009.5
20260504191336 77 198 6.0 6.0 0.00 0.00 0.00 25 1009.7
20260504190831 76 223 6.0 10.0 0.00 0.00 0.00 26 1009.7
20260504190327 74 97 1.0 9.0 0.00 0.00 0.00 27 1009.8
20260504185824 74 186 4.0 8.0 0.00 0.00 0.00 28 1010.1
20260504185321 75 212 6.0 17.0 0.00 0.00 0.00 25 1009.7
20260504184817 75 227 6.0 11.0 0.00 0.00 0.00 28 1010.0
20260504184313 74 186 9.0 11.0 0.00 0.00 0.00 28 1010.0
20260504183809 73 109 6.0 16.0 0.00 0.00 0.00 26 1010.1
20260504183306 74 13 2.0 11.0 0.00 0.00 0.00 30 1010.1
20260504182804 73 209 8.0 11.0 0.00 0.00 0.00 29 1010.4
20260504182301 72 153 11.0 15.0 0.00 0.00 0.00 27 1010.2
20260504181759 73 120 12.0 16.0 0.00 0.00 0.00 27 1010.3
20260504181256 73 141 8.0 12.0 0.00 0.00 0.00 28 1010.7
20260504180755 73 155 12.0 13.0 0.00 0.00 0.00 27 1010.4
20260504180253 73 107 6.0 10.0 0.00 0.00 0.00 27 1010.7
20260504175750 73 171 4.0 11.0 0.00 0.00 0.00 28 1010.5
20260504175247 72 174 4.0 11.0 0.00 0.00 0.00 27 1010.7
20260504174745 71 184 6.0 14.0 0.00 0.00 0.00 28 1010.7
20260504174243 72 146 3.0 10.0 0.00 0.00 0.00 29 1010.7
20260504173739 71 172 9.0 15.0 0.00 0.00 0.00 29 1010.9
20260504173236 71 190 4.0 12.0 0.00 0.00 0.00 30 1011.0
20260504172733 72 164 12.0 14.0 0.00 0.00 0.00 31 1010.7
20260504172229 71 178 5.0 15.0 0.00 0.00 0.00 31 1010.9
20260504171726 70 190 4.0 11.0 0.00 0.00 0.00 31 1011.1
20260504171223 70 167 3.0 14.0 0.00 0.00 0.00 30 1011.0
20260504170719 69 146 9.0 14.0 0.00 0.00 0.00 31 1011.0
20260504170217 69 161 6.0 19.0 0.00 0.00 0.00 32 1011.0
20260504160135 68 137 6.0 10.0 0.00 0.00 0.00 34 1011.0
20260504151103 61 166 8.0 15.0 0.00 0.00 0.00 41 1011.4
20260504150600 61 160 10.0 20.0 0.00 0.00 0.00 42 1011.6
20260504141026 61 146 9.0 16.0 0.00 0.00 0.00 40 1011.5
20260504140522 61 151 11.0 14.0 0.00 0.00 0.00 39 1011.1
20260504130447 60 167 6.0 17.0 0.00 0.00 0.00 39 1011.2
20260504110334 60 151 10.0 17.0 0.00 0.00 0.00 38 1011.6
20260504100251 60 148 15.0 19.0 0.00 0.00 0.00 34 1011.4
20260504081645 59 157 10.0 17.0 0.00 0.00 0.00 33 1011.0
20260504081141 59 160 13.0 27.0 0.00 0.00 0.00 32 1011.1
20260504080637 59 145 12.0 22.0 0.00 0.00 0.00 33 1011.2
20260504080134 59 144 18.0 23.0 0.00 0.00 0.00 33 1011.1
20260504050450 61 132 10.0 13.0 0.00 0.00 0.00 26 1011.2
20260504045947 61 145 10.0 12.0 0.00 0.00 0.00 26 1011.4
20260504045443 61 138 12.0 14.0 0.00 0.00 0.00 26 1011.1
20260504044939 61 124 10.0 12.0 0.00 0.00 0.00 26 1011.5
20260504044437 61 129 5.0 12.0 0.00 0.00 0.00 27 1011.2
20260504043934 61 136 8.0 13.0 0.00 0.00 0.00 26 1011.2
20260504043431 61 152 8.0 12.0 0.00 0.00 0.00 26 1011.2
20260504042929 61 126 10.0 13.0 0.00 0.00 0.00 26 1011.2
20260504042425 62 118 7.0 12.0 0.00 0.00 0.00 26 1011.4
20260504041921 62 140 7.0 13.0 0.00 0.00 0.00 26 1011.4
20260504041418 62 138 7.0 11.0 0.00 0.00 0.00 25 1011.5
20260504040914 62 128 9.0 11.0 0.00 0.00 0.00 26 1011.4
20260504040412 62 128 7.0 10.0 0.00 0.00 0.00 25 1011.7
20260504035908 63 125 8.0 11.0 0.00 0.00 0.00 26 1011.5
20260504035405 63 133 8.0 11.0 0.00 0.00 0.00 26 1011.5
20260504034902 63 127 8.0 11.0 0.00 0.00 0.00 26 1011.4
20260504034359 63 123 6.0 9.0 0.00 0.00 0.00 26 1011.2
20260504033856 63 135 7.0 9.0 0.00 0.00 0.00 25 1011.4
20260504033354 63 128 11.0 12.0 0.00 0.00 0.00 24 1011.2
20260504032850 63 153 4.0 9.0 0.00 0.00 0.00 26 1011.5
20260504032347 64 131 7.0 8.0 0.00 0.00 0.00 26 1011.2
20260504031844 64 133 5.0 8.0 0.00 0.00 0.00 25 1011.2
20260504031341 64 132 4.0 6.0 0.00 0.00 0.00 24 1011.1
20260504030837 64 127 4.0 6.0 0.00 0.00 0.00 24 1011.0
20260504030335 64 129 8.0 8.0 0.00 0.00 0.00 23 1011.4
20260504025831 64 141 4.0 6.0 0.00 0.00 0.00 25 1011.0
20260504025328 64 158 3.0 3.0 0.00 0.00 0.00 26 1011.2
20260504024825 65 156 3.0 4.0 0.00 0.00 0.00 25 1011.1
20260504024321 65 188 3.0 3.0 0.00 0.00 0.00 23 1011.2
20260504023818 65 167 3.0 5.0 0.00 0.00 0.00 23 1011.0
20260504023315 66 178 1.0 2.0 0.00 0.00 0.00 23 1011.0
20260504022811 67 208 1.0 2.0 0.00 0.00 0.00 21 1011.1
20260504022308 67 91 2.0 4.0 0.00 0.00 0.00 21 1011.1
20260504021804 67 83 4.0 5.0 0.00 0.00 0.00 20 1011.2
20260504021302 68 122 3.0 5.0 0.00 0.00 0.00 20 1011.2
20260504020758 68 42 4.0 7.0 0.00 0.00 0.00 20 1011.1
20260504020255 68 71 3.0 6.0 0.00 0.00 0.00 20 1010.9
20260504015751 68 81 5.0 5.0 0.00 0.00 0.00 20 1011.0
20260504015248 68 62 5.0 8.0 0.00 0.00 0.00 20 1011.0
20260504014743 69 82 4.0 6.0 0.00 0.00 0.00 20 1011.2
20260504014240 69 79 3.0 5.0 0.00 0.00 0.00 20 1011.2
20260504013738 69 77 2.0 4.0 0.00 0.00 0.00 21 1011.2
20260504013235 69 32 3.0 7.0 0.00 0.00 0.00 20 1011.4
20260504012732 69 68 2.0 6.0 0.00 0.00 0.00 21 1011.5
20260504012230 70 46 3.0 4.0 0.00 0.00 0.00 19 1011.2
20260504011726 70 65 2.0 3.0 0.00 0.00 0.00 19 1011.5
20260504011223 70 46 6.0 6.0 0.00 0.00 0.00 19 1011.6
20260504010719 71 16 4.0 4.0 0.00 0.00 0.00 19 1011.5
20260504010215 71 300 2.0 5.0 0.00 0.00 0.00 18 1011.5
20260504005711 71 304 4.0 9.0 0.00 0.00 0.00 17 1011.6
20260504005209 71 282 6.0 12.0 0.00 0.00 0.00 17 1011.5
20260504004707 71 324 6.0 11.0 0.00 0.00 0.00 18 1011.8
20260504004203 72 318 9.0 17.0 0.00 0.00 0.00 17 1011.7
20260504003700 73 327 3.0 12.0 0.00 0.00 0.00 16 1011.5
20260504003157 73 283 4.0 6.0 0.00 0.00 0.00 18 1011.6
20260504002653 73 291 5.0 5.0 0.00 0.00 0.00 18 1011.5
20260504002151 74 37 0.0 3.0 0.00 0.00 0.00 16 1011.6
20260504001649 74 320 2.0 6.0 0.00 0.00 0.00 16 1011.7
20260504001144 74 290 5.0 10.0 0.00 0.00 0.00 16 1011.7
20260504000642 75 272 6.0 8.0 0.00 0.00 0.00 19 1011.9
20260504000139 74 237 2.0 4.0 0.00 0.00 0.00 18 1011.6
20260503235637 74 225 3.0 4.0 0.00 0.00 0.00 17 1011.6
20260503235133 74 14 1.0 2.0 0.00 0.00 0.00 15 1011.8
20260503234632 74 260 2.0 2.0 0.00 0.00 0.00 16 1011.8
20260503234130 74 282 1.0 2.0 0.00 0.00 0.00 19 1011.7
20260503233626 74 307 0.0 4.0 0.00 0.00 0.00 16 1011.9
20260503233122 74 219 0.0 2.0 0.00 0.00 0.00 18 1011.6
20260503232619 74 169 2.0 4.0 0.00 0.00 0.00 16 1011.9
20260503232116 74 298 0.0 3.0 0.00 0.00 0.00 16 1012.2
20260503231614 74 295 0.0 5.0 0.00 0.00 0.00 14 1012.2
20260503231110 74 144 3.0 5.0 0.00 0.00 0.00 15 1012.0
20260503230608 74 147 3.0 7.0 0.00 0.00 0.00 15 1012.0
20260503230104 74 99 6.0 9.0 0.00 0.00 0.00 16 1012.0
20260503225602 74 160 3.0 4.0 0.00 0.00 0.00 16 1012.4
20260503225056 74 78 2.0 4.0 0.00 0.00 0.00 17 1012.3
20260503224554 74 353 0.0 5.0 0.00 0.00 0.00 17 1012.3
20260503224052 74 206 1.0 4.0 0.00 0.00 0.00 17 1012.4
20260503223550 74 180 4.0 5.0 0.00 0.00 0.00 16 1012.2
20260503223045 74 182 2.0 9.0 0.00 0.00 0.00 16 1012.6
20260503222543 74 38 1.0 10.0 0.00 0.00 0.00 15 1012.4
20260503222041 74 118 0.0 9.0 0.00 0.00 0.00 16 1012.5
20260503221539 75 143 6.0 11.0 0.00 0.00 0.00 16 1012.6
20260503221036 75 158 9.0 13.0 0.00 0.00 0.00 16 1012.9
20260503220532 75 278 2.0 4.0 0.00 0.00 0.00 18 1012.7
20260503220029 75 118 4.0 8.0 0.00 0.00 0.00 17 1013.0
20260503215526 74 96 6.0 10.0 0.00 0.00 0.00 15 1013.3
20260503215023 74 107 6.0 12.0 0.00 0.00 0.00 15 1013.2
20260503214522 75 117 5.0 16.0 0.00 0.00 0.00 15 1013.4
20260503214018 75 174 6.0 17.0 0.00 0.00 0.00 15 1013.8
20260503213516 76 80 3.0 9.0 0.00 0.00 0.00 16 1013.8
20260503213013 76 78 8.0 12.0 0.00 0.00 0.00 14 1013.6
20260503212510 77 158 12.0 13.0 0.00 0.00 0.00 17 1013.8
20260503212008 77 105 5.0 15.0 0.00 0.00 0.00 15 1013.6
20260503211504 77 117 4.0 17.0 0.00 0.00 0.00 13 1013.8
20260503211000 76 151 4.0 9.0 0.00 0.00 0.00 15 1014.0
20260503210457 76 117 7.0 15.0 0.00 0.00 0.00 14 1014.2
20260503205957 75 131 3.0 11.0 0.00 0.00 0.00 16 1014.1
20260503205454 75 116 9.0 18.0 0.00 0.00 0.00 15 1014.4
20260503204950 75 176 3.0 19.0 0.00 0.00 0.00 17 1014.5
20260503204448 76 137 6.0 12.0 0.00 0.00 0.00 16 1014.2
20260503203944 76 144 7.0 16.0 0.00 0.00 0.00 16 1014.6
20260503203442 76 96 6.0 11.0 0.00 0.00 0.00 17 1014.6
20260503202939 75 160 2.0 12.0 0.00 0.00 0.00 16 1014.6
20260503202437 75 119 8.0 12.0 0.00 0.00 0.00 16 1014.8
20260503201935 75 126 12.0 18.0 0.00 0.00 0.00 18 1014.8
20260503201432 76 70 2.0 6.0 0.00 0.00 0.00 17 1015.2
20260503200930 76 170 7.0 18.0 0.00 0.00 0.00 17 1015.1
20260503200426 76 129 9.0 11.0 0.00 0.00 0.00 16 1015.1
20260503195922 75 108 10.0 12.0 0.00 0.00 0.00 17 1015.2
20260503195420 75 120 4.0 14.0 0.00 0.00 0.00 17 1015.3
20260503194916 76 177 8.0 18.0 0.00 0.00 0.00 17 1015.4
20260503194413 76 157 9.0 14.0 0.00 0.00 0.00 18 1015.3
20260503193909 76 135 5.0 11.0 0.00 0.00 0.00 18 1015.5
20260503193404 75 101 10.0 11.0 0.00 0.00 0.00 18 1015.6
20260503192900 75 162 8.0 12.0 0.00 0.00 0.00 17 1015.5
20260503192356 75 116 6.0 15.0 0.00 0.00 0.00 17 1015.7